Weather History for Ypsilanti, MI

Change the Weather History Date:

Thursday, January 31, 2013

  Actual Average Record
Temperature  
Mean Temperature 22 °F -  
Max Temperature 24 °F 32 °F 59 °F (1989)
Min Temperature 19 °F 19 °F -7 °F (1971)
Degree Days  
Heating Degree Days 44    
Moisture  
Dew Point 14 °F    
Average Humidity 70    
Maximum Humidity 80    
Minimum Humidity 60    
Precipitation  
Precipitation 0.00 in - - ()
Sea Level Pressure  
Sea Level Pressure 29.77 in    
Wind  
Wind Speed 17 mph (West)    
Max Wind Speed 24 mph    
Max Gust Speed 32 mph    
Visibility 5 miles    
Events Snow    
Averages and records for this station are not official NWS values.
T = Trace of Precipitation, MM = Missing Value Source: NWS Daily Summary

Daily Weather History Graph

Daily Weather History Graph

Search for Another Location

Airport:

Trip Planner

Search our weather history database for the weather conditions in past years. The results will help you decide how hot, cold, wet, or windy it might be!

Date:

Astronomy

Jan. 31, 2013 Rise Set
Actual Time 7:48 AM EST 5:47 PM EST
Civil Twilight 7:18 AM EST 6:17 PM EST
Nautical Twilight 6:44 AM EST 6:50 PM EST
Astronomical Twilight 6:11 AM EST 7:23 PM EST
Moon 10:55 PM EST (1/31) 9:40 AM EST (1/31)
Length of Visible Light 10h 58m
Length of Day
9h 59m
Waning Gibbous, 80% of the Moon is Illuminated
Jan 31
Waning Gibbous
Feb 3
Last Quarter
Feb 10
New
Feb 17
First Quarter
Feb 25
Full

Hourly Weather History & Observations

Time (EST) Temp. Windchill Dew Point Humidity Pressure Visibility Wind Dir Wind Speed Gust Speed Precip Events Conditions
7:12 AM 24.8 °F 13.4 °F 19.4 °F 80% 29.54 in 2.0 mi WNW 12.7 mph 23.0 mph N/A Snow Light Snow
8:53 AM 24.8 °F 11.1 °F 17.6 °F 74% 29.57 in 2.0 mi WNW 18.4 mph - N/A Snow Light Snow
9:53 AM 24.8 °F 9.6 °F 14.0 °F 64% 29.62 in 10.0 mi West 23.0 mph 32.2 mph N/A   Overcast
10:43 AM 24.8 °F 11.9 °F 15.8 °F 69% 29.96 in 8.0 mi West 16.1 mph 24.2 mph N/A Snow Light Snow
11:42 AM 24.8 °F 12.4 °F 17.6 °F 74% 29.67 in 1.0 mi West 15.0 mph - 0.00 in Snow Light Snow
11:45 AM 24.8 °F 10.0 °F 15.8 °F 69% 29.67 in 4.0 mi WSW 21.9 mph 27.6 mph 0.00 in Snow Light Snow
11:53 AM 24.8 °F 10.0 °F 14.0 °F 64% 29.68 in 10.0 mi West 21.9 mph 31.1 mph N/A   Overcast
1:53 PM 24.1 °F 8.3 °F 14.0 °F 65% 29.72 in 7.0 mi West 24.2 mph 32.2 mph 0.00 in Snow Light Snow
2:08 PM 24.8 °F 10.3 °F 15.8 °F 69% 29.70 in 1.5 mi West 20.7 mph 31.1 mph 0.00 in Snow Light Snow
2:42 PM 24.8 °F 12.4 °F 15.8 °F 69% 29.71 in 3.0 mi West 15.0 mph 23.0 mph 0.00 in Snow Light Snow
2:51 PM 24.8 °F 12.4 °F 15.8 °F 69% 29.71 in 1.8 mi West 15.0 mph 25.3 mph 0.00 in Snow Light Snow
2:53 PM 24.1 °F 10.6 °F 15.1 °F 69% 29.73 in 1.2 mi West 17.3 mph 25.3 mph 0.00 in Snow Light Snow
3:08 PM 24.8 °F 11.9 °F 15.8 °F 69% 29.71 in 2.5 mi West 16.1 mph 25.3 mph 0.00 in Snow Light Snow
3:16 PM 24.8 °F 11.9 °F 15.8 °F 69% 29.72 in 8.0 mi West 16.1 mph 24.2 mph 0.00 in   Overcast
3:33 PM 24.8 °F 12.4 °F 14.0 °F 64% 29.72 in 10.0 mi West 15.0 mph - 0.00 in   Overcast
3:42 PM 23.0 °F 7.6 °F 15.8 °F 74% 29.73 in 1.8 mi West 21.9 mph 25.3 mph 0.00 in Snow Light Snow
3:51 PM 23.0 °F 9.6 °F 15.8 °F 74% 29.74 in 0.5 mi West 16.1 mph - 0.00 in Snow Snow
3:53 PM 23.0 °F 9.2 °F 16.0 °F 74% 29.75 in 0.5 mi West 17.3 mph - 0.00 in Snow Snow
3:58 PM 24.8 °F 10.7 °F 15.8 °F 69% 29.74 in 3.0 mi West 19.6 mph 28.8 mph 0.00 in Snow Light Snow
4:06 PM 24.8 °F 9.6 °F 14.0 °F 64% 29.74 in 9.0 mi West 23.0 mph 27.6 mph 0.00 in   Overcast
4:53 PM 23.0 °F 6.9 °F 12.9 °F 65% 29.77 in 10.0 mi WSW 24.2 mph 29.9 mph 0.00 in   Overcast
5:32 PM 21.2 °F 5.6 °F 12.2 °F 68% 29.76 in 4.0 mi West 20.7 mph - 0.00 in Snow Light Snow
5:42 PM 21.2 °F 6.8 °F 12.2 °F 68% 29.76 in 9.0 mi West 17.3 mph - 0.00 in   Overcast
5:53 PM 21.9 °F 7.8 °F 10.9 °F 63% 29.79 in 10.0 mi WSW 17.3 mph - 0.00 in   Overcast
6:53 PM 21.9 °F 7.8 °F 10.0 °F 60% 29.82 in 10.0 mi West 17.3 mph 25.3 mph N/A   Overcast
7:53 PM 21.0 °F 7.1 °F 10.9 °F 65% 29.85 in 9.0 mi WSW 16.1 mph - 0.00 in   Overcast
8:53 PM 19.9 °F 5.7 °F 12.9 °F 74% 29.86 in 4.0 mi WSW 16.1 mph - 0.00 in Snow Light Snow
9:53 PM 19.0 °F 6.1 °F 12.9 °F 77% 29.88 in 4.0 mi WSW 12.7 mph - 0.00 in Snow Light Snow
10:08 PM 19.4 °F 6.6 °F 12.2 °F 74% 29.86 in 4.0 mi WSW 12.7 mph - 0.00 in Snow Light Snow
10:23 PM 19.4 °F 7.2 °F 12.2 °F 74% 29.86 in 2.0 mi WSW 11.5 mph - 0.00 in Snow Light Snow
10:50 PM 19.4 °F 6.6 °F 12.2 °F 74% 29.86 in 1.8 mi WSW 12.7 mph - 0.00 in Snow Light Snow
10:53 PM 19.0 °F 6.8 °F 12.0 °F 74% 29.89 in 1.8 mi WSW 11.5 mph - 0.00 in Snow Light Snow
11:04 PM 19.4 °F 6.0 °F 12.2 °F 74% 29.87 in 2.5 mi WSW 13.8 mph - 0.00 in Snow Light Snow
11:14 PM 19.4 °F 6.6 °F 12.2 °F 74% 29.86 in 4.0 mi WSW 12.7 mph - 0.00 in Snow Light Snow
11:51 PM 19.4 °F 7.2 °F 12.2 °F 74% 29.87 in 4.0 mi WSW 11.5 mph - 0.00 in Snow Light Snow
11:53 PM 19.0 °F 6.8 °F 12.0 °F 74% 29.90 in 5.0 mi West 11.5 mph - 0.00 in Snow Light Snow